Regional Weather Roundup
Issued by NWS

Home | Current Version | Previous Version | Graphics & Text | Print | Product List | Glossary Off
Versions: 1 2 3 4 5 6 7 8 9 10 11 12 13 14 15 16 17 18 19 20 21 22 23 24 25 26 27 28 29 30 31 32 33 34 35 36 37 38 39 40 41 42 43 44 45 46 47 48 49 50

078
ASUS43 KDTX 091101
RWRMI
MICHIGAN HOURLY REGIONAL WEATHER ROUNDUP
NATIONAL WEATHER SERVICE DETROIT/PONTIAC MI
600 AM EST TUE FEB 09 2016

NOTE: "FAIR" INDICATES FEW OR NO CLOUDS BELOW 12,000 FEET WITH NO
SIGNIFICANT WEATHER AND/OR OBSTRUCTION TO VISIBILITY.

MIZ047>049-052>055-059>063-066>070-074>076-081>083-091200-
SOUTHEAST LOWER MICHIGAN

CITY           SKY/WX    TMP DP  RH WIND       PRES   REMARKS
ADRIAN         CLOUDY    29  26  89 W8        29.56S WCI  21
ALMA           CLOUDY    28  25  89 NW15      29.58R WCI  17
ANN ARBOR      LGT SNOW  30  29  96 W9        29.53S FOG     WCI  22
BAD AXE        LGT SNOW  30  29  95 NW15G21   29.48R VSB 1   WCI  19
CARO           CLOUDY    30  28  93 NW12      29.50S WCI  21
DETROIT CITY   LGT SNOW  32  29  88 W8        29.52R FOG     WCI  25
DETROIT        LGT SNOW  32  29  88 SW8       29.54S FOG     WCI  25
FLINT          LGT SNOW  32  27  81 NW13      29.53R WCI  22
GROSSE ILE     LGT SNOW  32  28  86 W9        29.52S WCI  24
HILLSDALE      LGT SNOW  28  27  99 W8        29.55R WCI  20
HOWELL         SNOW      31  30  97 NW9       29.53R VSB 1/2 WCI  23

CITY           SKY/WX    TMP DP  RH WIND       PRES   REMARKS
JACKSON        LGT SNOW  30  27  88 W7        29.54S FOG     WCI  23
LAMBERTVILLE   LGT SNOW  30  27  87 W7        29.57S WCI  23
LANSING        LGT SNOW  29  26  89 NW8       29.56S FOG     WCI  21
LAPEER         LGT SNOW  30  30  98 NW8G17    29.50R WCI  23
MASON          LGT SNOW  30  28  94 NW10      29.55R WCI  21
MONROE         FLURRIES  31  28  90 W9        29.54S WCI  23
MT. CLEMENS    LGT SNOW  32  32 100 W8        29.48S FOG     WCI  25
PONTIAC        LGT SNOW  31  30  96 NW7       29.49S FOG     WCI  24
PORT HURON     LGT SNOW  32  32 100 W10       29.48R WCI  24
TRI CITIES     LGT SNOW  30  26  85 NW15      29.54S FOG     WCI  19
MIDLAND        LGT SNOW  28  26  91 NW12G18   29.55R WCI  18
TROY           LGT SNOW  33  32  96 W6        29.52S WCI  28
SAGINAW HB     LGT SNOW  30  30 100 NW9       29.53S WCI  22
$$
MIZ043>046-050>051-056>058-064>065-071>073-077>080-091200-
SOUTHWEST LOWER MICHIGAN

CITY           SKY/WX    TMP DP  RH WIND       PRES   REMARKS
BATTLE CREEK   CLOUDY    30  26  85 NW9       29.58R WCI  22
BENTON HARBOR  CLOUDY    30  24  78 N13G23    29.65R WCI  20
BIG RAPIDS     CLOUDY    24  22  91 NW10G20   29.60S WCI  14
COLDWATER      CLOUDY    29  29  99 W5        29.57S WCI  24
FREMONT        CLOUDY    25  22  89 NW16      29.63S WCI  12
HOLLAND        CLOUDY    28  21  75 NW12G21   29.65R WCI  18
GRAND RAPIDS   CLOUDY    28  23  81 NW14      29.61R WCI  17
IONIA          CLOUDY    28  24  82 NW12G18   29.57S WCI  18
KALAMAZOO      CLOUDY    30  26  85 N14       29.60R WCI  19
LUDINGTON      CLOUDY    24  20  84 N15G23    29.67S WCI  11
MARSHALL       CLOUDY    31  29  93 W6        29.56R WCI  25
MOUNT PLEASANT CLOUDY    28  22  81 NW9G17    29.57S WCI  19
MUSKEGON       CLOUDY    27  20  75 N13       29.66S WCI  16
SOUTH HAVEN    CLOUDY    29  26  88 N14G22    29.64S WCI  18
$$
MIZ016>042-091200-
NORTHERN LOWER MICHIGAN

CITY           SKY/WX    TMP DP  RH WIND       PRES   REMARKS
ALPENA         LGT SNOW  27  24  89 NW13      29.53S FOG     WCI  16
BEAVER ISLAND  CLOUDY    23  19  83 NW10G16   29.65R WCI  12
BELLAIRE       CLOUDY    26  21  83 N5        29.64R WCI  20
CADILLAC       CLOUDY    24  21  89 NW12G20   29.58R WCI  12
CHARLEVOIX     CLOUDY    25  21  85 NW13      29.66R WCI  14
FRANKFORT      CLOUDY    24  20  84 N9G16     29.67R WCI  14
GAYLORD        CLOUDY    23  20  88 VRB6      29.55S WCI  16
GRAYLING       LGT SNOW  24  21  88 NW16G22   29.57S WCI  10
HARBOR SPRINGS CLOUDY    24  20  85 NW8       29.61S WCI  15
HOUGHTON LAKE  LGT SNOW  24  20  84 NW10G21   29.56R FOG     WCI  14
MANISTEE       CLOUDY    25  18  74 N12G17    29.67S WCI  14
OSCODA         LGT SNOW  28  26  93 NW12      29.50R WCI  17
PELLSTON       CLOUDY    23  19  85 NW14      29.61S WCI  11
ROGERS CITY    LGT SNOW  28  25  89 NW9G16    29.57S WCI  19
TRAVERSE CITY  CLOUDY    26  20  77 N9        29.63S WCI  17
$$
MIZ007>008-015-091200-
EASTERN UPPER MICHIGAN

CITY           SKY/WX    TMP DP  RH WIND       PRES   REMARKS
KINROSS        CLOUDY    27  25  93 NW12      29.57S WCI  16
MACKINAC ISLAN CLOUDY    24  23  93 NW13      29.59S WCI  13
NEWBERRY       CLOUDY    22  20  94 NW12      29.61S WCI  10
S. S. MARIE    LGT SNOW  28  24  85 NW12      29.57R FOG     WCI  18
$$
MIZ004>006-011>014-085-091200-
CENTRAL UPPER MICHIGAN

CITY           SKY/WX    TMP DP  RH WIND       PRES   REMARKS
MANISTIQUE     CLOUDY    21  15  78 NW16G24   29.64S WCI   7
ESCANABA       MOCLDY    16   7  67 NW7       29.71S WCI   6
MENOMINEE      CLOUDY    14   5  67 N10G18    29.75S WCI   1
SAWYER-GWINN   LGT SNOW  12   8  85 N16G22    29.69S WCI  -5
$$
MIZ001>003-009>011-084-091200-
WESTERN UPPER MICHIGAN

CITY           SKY/WX    TMP DP  RH WIND       PRES   REMARKS
IRON MOUNTAIN  LGT SNOW  11   4  73 NW10      29.72R WCI  -3
HOUGHTON       HAZE      10   5  80 N16G25    29.79R VSB 1   WCI  -7
COPPER HARBOR    N/A     16  12  84 NE25G32   29.79R WCI  -3
IRONWOOD       CLOUDY    12   9  85 N14G22    29.83R VSB 1   WCI  -3
$$

ABBREVIATIONS USED IN REMARKS
   TC - TEMPERATURE IN CELSIUS
  WCI - WIND CHILL INDEX
   HX - HEAT INDEX
  VSB - VISIBILITY





USA.gov is the U.S. government's official web portal to all federal, state and local government web resources and services.